Showing default

OV1-14, 3174

Orbit data source: Space-Track

OV1-14, 3174 is a payload satellite owned by USAF OAR (US) that was launched on Sat, 06 Apr 1968 UTC via an ATLAS F launch vehicle from the Air Force Western Test Range (AFWTR). Payload-class satellites include a variety of spacecraft equipped with specific instruments for various scientific and technological missions. These include communications satellites like Starlink; space stations such as the ISS; scientific satellites like the Hubble; Earth observation satellites from companies like Planet Labs, Umbra, and HawkEye 360; GPS; miniature CubeSats for education and research; and military/defense satellites.

Loading next visibility...
Identifier
3174, 1968-026B
Orbit
Active
Country
Flag of USUS
Related business
Manufacturer
GD/Convair
Mission
Civil Science
Bus & Motor
OV1, Unknown motor
Mass
101 kg wet, 101 kg dry
Launch date (UTC)
1968-04-06 (57 years ago)
Launch vehicle
ATLAS F
Launch site
Air Force Western Test Range (AFWTR)
Object type
Payload
Rocket body
Debris
Shape & HBR
Domed Cyl, 0.7 m
Radar Cross Section
0.946 m², Medium (>0.1 m² and < 1m²)

Expand to show TLE details & history
Last TLE update: 12 hours ago

TLE from 12 hours ago
0 OV1-14
1 03174U 68026B   25258.17547988  .00000158  00000-0  25935-3 0  9999
2 03174 100.0056 276.0600 4009061 145.4715 280.9036  6.96684831457169
Epoch: 2025-09-15T04:12Z
TLE epoch observation values (Epoch: 2025-09-15T04:12:41.461Z)
Latitude
21.26703°
Longitude
-145.42214°
Altitude
6,137.657 km
Speed
5.413 km/s
True Right ascension
18h 08m 32s
True Declination
21° 12' 03"
Sunlit
Object was in daylight at epoch
Visualization orbit readout
Latitude
Unknown
Longitude
Unknown
Altitude
Unknown
Speed
Unknown
Apparent Right ascension
Unknown
Apparent Declination
Unknown
Sunlit
N/A
Visualization observer readout
Local Sidereal Time
08:24:26
Azimuth
Unknown
Elevation
Unknown
Doppler factor
Unknown
Orbital elements
Apogee altitude
9,841.304 km
Perigee altitude
558.065 km
Semi-major axis
11,577.822 km
Eccentricity
0.40091
Inclination
100.0056°
RAAN
276.06°
Arg. of periapsis
145.4715°
True anomaly
236.14815°
Mean anomaly
280.9036°
Eccentric anomaly
258.40234°
Mean motion
1.74222 °/min
Orbital period
206.63 mins
BSTAR
0.00025935
Loading maneuver chart data...
Computing Atmospheric mass density...
Loading historical data...
Loading historical data...
Loading historical data...
Loading historical data...
Loading historical data...
Loading historical data...
Loading historical data...
Other satellites on launch #26 in the year 1968 (1968-04-06 UTC)

Documentation

Showing up to 5 results
|